This is the latest recevied weather packets stored in our database for station/object WD0REW. If no packets are shown the sender has not sent any weather packets the latest 10 day(s).
| Time | Temp. | Humidity | Pressure | Rain* | Wind** | Luminosity | Snow |
|---|---|---|---|---|---|---|---|
| 1778001228 | 13.33° C | 76% | 1009.3 hPa | 0 mm | - | 105 W/m² | - |
| 1778000924 | 13.33° C | 76% | 1009.5 hPa | 0 mm | - | 96 W/m² | - |
| 1778000621 | 12.78° C | 77% | 1009 hPa | 0 mm | - | 121 W/m² | - |
| 1778000317 | 12.78° C | 77% | 1009 hPa | 0 mm | - | 143 W/m² | - |
| 1778000013 | 12.78° C | 78% | 1009 hPa | 0 mm | - | 142 W/m² | - |
| 1777999708 | 13.33° C | 76% | 1008.9 hPa | 0 mm | - | 138 W/m² | - |
| 1777999405 | 13.33° C | 76% | 1008.9 hPa | 0 mm | - | 208 W/m² | - |
| 1777999104 | 13.33° C | 76% | 1008.9 hPa | 0 mm | - | 292 W/m² | - |
| 1777998802 | 12.78° C | 76% | 1009.1 hPa | 0 mm | - | 181 W/m² | - |
| 1777998500 | 12.78° C | 77% | 1008.9 hPa | 0 mm | - | 194 W/m² | - |
| 1777998196 | 13.33° C | 76% | 1009.3 hPa | 0 mm | - | 147 W/m² | - |
| 1777997893 | 13.33° C | 76% | 1009.2 hPa | 0 mm | - | 107 W/m² | - |
| 1777997590 | 13.33° C | 76% | 1009.5 hPa | 0 mm | - | 121 W/m² | - |
| 1777997288 | 13.33° C | 76% | 1009.5 hPa | 0 mm | - | 117 W/m² | - |
| 1777996986 | 13.89° C | 74% | 1009.5 hPa | 0 mm | - | 94 W/m² | - |
| 1777996682 | 13.89° C | 74% | 1009.8 hPa | 0 mm | - | 54 W/m² | - |
| 1777996377 | 14.44° C | 74% | 1009.6 hPa | 0 mm | - | 63 W/m² | - |
| 1777996074 | 14.44° C | 75% | 1009.5 hPa | 0 mm | - | 57 W/m² | - |
| 1777995771 | 15° C | 74% | 1009.1 hPa | 0 mm | - | 90 W/m² | - |
| 1777995467 | 15° C | 73% | 1008.8 hPa | 0 mm | - | 178 W/m² | - |
| 1777995164 | 15.56° C | 72% | 1008.8 hPa | 0 mm | - | 175 W/m² | - |
| 1777994862 | 15.56° C | 73% | 1008.1 hPa | 0 mm | - | 216 W/m² | - |
| 1777994558 | 15.56° C | 72% | 1008.2 hPa | 0 mm | - | 227 W/m² | - |
| 1777994258 | 15° C | 73% | 1008.1 hPa | 0 mm | - | 282 W/m² | - |
| 1777993956 | 15° C | 75% | 1007.7 hPa | 0 mm | - | 234 W/m² | - |
* Rain latest hour (hover to see other rain measurements)
** Current wind speed in m/s (hover to see current wind gust speed)